[[{"header":{"parameterUnit":"m.s-1","parameterCategory":1,"la1":30.2991,"la2":30.254,"lo1":-89.0895,"lo2":-89.0444,"dy":0.0017,"dx":0.0017,"nx":28,"ny":28,"refTime":"2024-02-12T09:00:00:Z","depth":0,"parameterNumber":2,"parameterNumberName":"U-component_of_WINDS"},"data":[0,0,0,0,0,0,0,0,0,0,0,0,0,0,0,0,0,0,0,0,0,0,0,0,0,0,0,0,0,0,0,0,0,0,0,0,0,0,0,0,0,0,0,0,0,0,0,0,0,0,0,0,0,0,0,0,0,0,6.2746,6.2748,0,6.2875,6.2876,6.2878,6.2832,6.2829,6.2826,6.2823,6.2953,6.2958,6.2965,0,0,0,0,0,0,0,0,0,0,0,0,0,6.246,6.2466,6.2746,6.2748,6.2749,6.2875,6.2876,6.2878,6.2832,6.2829,6.2825,6.2822,6.2951,6.2958,6.2965,0,0,0,0,0,0,0,0,0,0,0,0,0,6.2586,6.2468,6.2746,6.2742,6.2743,6.2874,6.2876,6.2878,6.2833,6.2829,6.2824,6.282,6.2948,6.2957,6.2966,6.3109,0,0,6.2994,6.2998,0,0,0,0,0,0,0,0,6.2579,6.2597,6.2741,6.2742,6.2744,6.2833,6.2823,6.2956,6.2834,6.2799,6.2823,6.2818,6.2916,6.2928,6.2961,6.3115,6.312,6.2995,6.3,6.3004,6.3007,0,0,0,0,0,0,0,6.257,6.2591,6.2797,6.2743,6.2745,6.2733,6.2746,6.2848,6.288,6.2801,6.2798,6.2814,6.2916,6.2952,6.2964,6.3122,6.2995,6.3003,6.3008,6.3012,6.3401,6.3405,0,0,0,0,0,0,6.2561,6.2584,6.2793,6.2801,6.2649,6.2742,6.2756,6.2809,6.2879,6.2885,6.2818,6.2812,6.2939,6.2953,6.2968,6.314,6.3004,6.3013,6.3018,6.3396,6.3402,6.3407,0,0,0,0,0,0,6.2555,6.258,6.2788,6.2692,6.2717,6.2751,6.281,6.2813,6.285,6.2891,6.2896,6.2849,6.2936,6.2955,6.3075,6.3144,6.3017,6.3025,6.339,6.3398,6.3404,6.3486,0,0,0,0,0,0,6.2547,6.2578,6.2633,6.2693,6.2723,6.2893,6.2814,6.2819,6.2866,6.2859,6.2922,6.2928,6.2934,6.3061,6.3084,6.3154,6.3033,6.3384,6.3393,6.3402,6.3477,6.3495,6.351,0,0,0,0,0,6.2537,6.265,6.2636,6.2662,6.2792,6.2897,6.2913,6.2918,6.2872,6.2927,6.2954,6.2926,6.3133,6.3074,6.3099,6.3173,6.338,6.3391,6.3401,6.3469,6.3491,6.351,0,0,0,0,0,0,6.2596,6.2658,6.2643,6.2779,6.2833,6.2889,6.2958,6.2941,6.3009,6.3,6.3003,6.3017,6.314,6.3169,6.3101,6.3316,6.3249,6.3266,6.3293,6.3314,6.333,6.332,6.304,0,0,0,0,0,6.2625,6.2706,6.2755,6.287,6.2898,6.2924,6.297,6.2969,6.3025,6.3047,6.3083,6.3138,6.3215,6.3266,6.3339,6.3481,6.3494,6.3545,6.3561,6.3575,6.3589,6.3667,6.369,6.3442,6.3442,6.3442,0,0,6.2685,6.2729,6.2779,6.2883,6.2925,6.3008,6.2943,6.3034,6.3095,6.3061,6.3176,6.3204,6.3266,6.3397,6.3457,6.3425,6.366,6.3589,6.3599,6.3606,6.368,6.3704,6.3725,6.345,6.3448,6.3447,0,0,6.2837,6.2879,6.298,6.3024,6.3088,6.3105,6.3129,6.3188,6.3206,6.3322,6.3298,6.3372,6.3505,6.355,6.359,6.3762,6.3739,6.3786,6.3872,6.3948,6.3968,6.3985,6.4047,6.4069,6.38,6.38,6.38,0,6.2904,6.3029,6.3033,6.3127,6.3173,6.3147,6.325,6.3292,6.3377,6.3409,6.3373,6.354,6.358,6.3722,6.3764,6.3797,6.3825,6.3778,6.3965,6.3982,6.3998,6.4057,6.408,6.3805,6.3805,6.3804,6.3804,0,6.3108,6.3195,6.3268,6.3353,6.3408,6.3505,6.3524,6.3579,6.3575,6.3595,6.3714,6.3761,6.3844,6.3878,6.3873,6.402,6.3998,6.3963,6.3896,6.4027,6.4082,6.4105,6.3813,6.3811,6.3809,6.3808,0,0,6.3299,6.3386,6.3413,6.3452,6.3522,6.359,6.3686,6.3769,6.3816,6.3876,6.3957,6.4071,6.404,6.4086,6.4087,6.4153,6.4287,6.411,6.4112,6.4142,6.4452,6.4478,6.4504,6.4273,6.4277,6.4281,6.4447,0,6.3457,6.3628,6.3635,6.379,6.3871,6.3848,6.3932,6.3985,6.4007,6.4079,6.4103,6.4184,6.4136,6.4164,6.4229,6.4257,6.435,6.4245,6.4348,6.4352,6.4333,6.4533,6.456,6.4715,6.4469,6.4473,6.4475,0,6.3664,6.3733,6.3896,6.3956,6.399,6.4066,6.4143,6.4212,6.4271,6.4282,6.4335,6.4326,6.4425,6.4356,6.4492,6.4421,6.4464,6.4484,6.449,6.4499,6.4421,6.4548,6.4764,6.4787,6.4509,6.4506,6.4504,0,6.3789,6.3921,6.4036,6.407,6.4143,6.4196,6.4229,6.4284,6.4334,6.4401,6.4433,6.451,6.4553,6.4613,6.4626,6.4574,6.4762,6.4694,6.4774,6.4774,6.4814,6.4812,6.5041,6.4843,6.4842,6.4842,6.4841,0,6.3964,6.4065,6.4093,6.4164,6.4276,6.4284,6.4395,6.4424,6.4474,6.455,6.4535,6.4606,6.4619,6.4693,6.4704,6.4815,6.4834,6.4846,6.4848,6.4848,6.4846,6.4875,6.4865,6.4848,6.4847,6.4845,6.4844,0,6.4122,6.4144,6.4268,6.4328,6.4345,6.4426,6.4476,6.4544,6.4565,6.4662,6.4685,6.4718,6.4805,6.4824,6.4926,6.4934,6.5066,6.5057,6.5047,6.5046,6.5126,6.5118,6.5381,6.5416,6.5195,6.5197,6.5199,0,6.4232,6.4309,6.4378,6.4428,6.4464,6.4545,6.4596,6.4607,6.4661,6.4735,6.4794,6.488,6.4949,6.5089,6.5121,6.52,6.5193,6.528,6.5204,6.5202,6.5194,6.519,6.5198,6.5294,6.5296,6.5298,6.53,0,6.4426,6.4434,6.4508,6.4588,6.4649,6.4712,6.4771,6.4813,6.4832,6.4893,6.4983,6.5036,6.5142,6.5227,6.5307,6.534,6.5324,6.5324,6.5346,6.5347,6.5338,6.5344,6.5086,6.5317,6.5315,6.5314,6.5313,6.5313,6.4564,6.4632,6.4691,6.4775,6.4821,6.4878,6.4945,6.4975,6.505,6.5137,6.514,6.5237,6.5295,6.54,6.5439,6.5515,6.5488,6.5521,6.5529,6.5537,6.5545,6.5326,6.5529,6.5529,6.5529,6.5528,6.5528,0,6.4758,6.4795,6.4872,6.4956,6.5023,6.5003,6.5068,6.5124,6.521,6.5266,6.5335,6.5438,6.5521,6.5561,6.5643,6.5697,6.5691,6.5718,6.5714,6.5722,6.5564,6.5536,6.5721,6.5721,6.5721,6.5721,6.5721,6.5721,6.4866,6.4981,6.4996,6.5133,6.5169,6.5266,6.5305,6.5357,6.5402,6.5518,6.5587,6.5613,6.5663,6.5749,6.5824,6.5834,6.5865,6.5895,6.5901,6.5753,6.5733,6.5714,6.5688,6.5902,6.5902,6.6052,6.6054,6.6055]},{"header":{"parameterUnit":"m.s-1","parameterCategory":1,"la1":30.2991,"la2":30.254,"lo1":-89.0895,"lo2":-89.0444,"dy":0.0017,"dx":0.0017,"nx":28,"ny":28,"refTime":"2024-02-12T09:00:00:Z","depth":0,"parameterNumber":3,"parameterNumberName":"V-component_of_WINDS"},"data":[0,0,0,0,0,0,0,0,0,0,0,0,0,0,0,0,0,0,0,0,0,0,0,0,0,0,0,0,0,0,0,0,0,0,0,0,0,0,0,0,0,0,0,0,0,0,0,0,0,0,0,0,0,0,0,0,0,0,-5.6834,-5.6836,0,-5.7025,-5.7027,-5.7029,-5.7041,-5.7039,-5.7037,-5.7035,-5.723,-5.7237,-5.7244,0,0,0,0,0,0,0,0,0,0,0,0,0,-5.6478,-5.6485,-5.6833,-5.6836,-5.6838,-5.7025,-5.7027,-5.703,-5.7041,-5.7039,-5.7036,-5.7034,-5.7227,-5.7236,-5.7245,0,0,0,0,0,0,0,0,0,0,0,0,0,-5.6647,-5.6487,-5.6833,-5.6866,-5.6871,-5.7024,-5.7027,-5.7031,-5.7042,-5.7039,-5.7035,-5.7032,-5.7225,-5.7235,-5.7246,-5.7378,0,0,-5.7279,-5.7284,0,0,0,0,0,0,0,0,-5.6638,-5.666,-5.6859,-5.6864,-5.687,-5.7006,-5.6974,-5.7147,-5.7043,-5.6977,-5.7035,-5.7031,-5.7158,-5.7174,-5.7217,-5.7387,-5.7395,-5.728,-5.7286,-5.7291,-5.7294,0,0,0,0,0,0,0,-5.6626,-5.6652,-5.6909,-5.6862,-5.6869,-5.6872,-5.6892,-5.7007,-5.7083,-5.6983,-5.6984,-5.7006,-5.716,-5.7207,-5.7222,-5.7398,-5.728,-5.7289,-5.7296,-5.73,-5.7687,-5.7691,0,0,0,0,0,0,-5.6608,-5.6642,-5.6903,-5.6915,-5.6744,-5.6881,-5.6904,-5.6966,-5.7082,-5.7097,-5.7009,-5.7006,-5.719,-5.7209,-5.7229,-5.7392,-5.7291,-5.7301,-5.7307,-5.7684,-5.7688,-5.7692,0,0,0,0,0,0,-5.66,-5.6631,-5.6895,-5.6779,-5.6813,-5.6891,-5.696,-5.6971,-5.7017,-5.7102,-5.7116,-5.7042,-5.7188,-5.7213,-5.7341,-5.7398,-5.7306,-5.7316,-5.7679,-5.7685,-5.769,-5.7718,0,0,0,0,0,0,-5.659,-5.6628,-5.6679,-5.678,-5.6819,-5.7005,-5.6963,-5.6977,-5.7036,-5.7034,-5.7137,-5.7151,-5.7187,-5.7325,-5.7352,-5.7412,-5.7324,-5.7674,-5.7682,-5.7689,-5.7712,-5.7724,-5.7734,0,0,0,0,0,-5.6577,-5.6679,-5.6682,-5.6713,-5.6884,-5.7008,-5.703,-5.707,-5.7041,-5.7093,-5.7147,-5.7148,-5.7388,-5.7338,-5.7368,-5.7432,-5.7671,-5.768,-5.7688,-5.7707,-5.7722,-5.7734,0,0,0,0,0,0,-5.6582,-5.6693,-5.6697,-5.6834,-5.6912,-5.701,-5.7076,-5.7084,-5.7171,-5.7166,-5.7211,-5.7235,-5.7361,-5.741,-5.7352,-5.7567,-5.7526,-5.7541,-5.753,-5.7545,-5.7555,-5.7541,-5.7333,0,0,0,0,0,-5.6599,-5.669,-5.6782,-5.6894,-5.6933,-5.6998,-5.7053,-5.7077,-5.7159,-5.7192,-5.7256,-5.7335,-5.7429,-5.749,-5.758,-5.772,-5.7742,-5.7779,-5.7789,-5.7798,-5.781,-5.7888,-5.7906,-5.772,-5.772,-5.772,0,0,-5.6635,-5.6707,-5.6761,-5.6897,-5.696,-5.7053,-5.7025,-5.7125,-5.7195,-5.7207,-5.7332,-5.7382,-5.7473,-5.7608,-5.767,-5.7652,-5.7867,-5.7809,-5.7815,-5.7823,-5.7899,-5.7916,-5.7932,-5.7726,-5.7725,-5.7724,0,0,-5.6748,-5.6811,-5.6912,-5.6976,-5.7072,-5.7115,-5.7139,-5.7237,-5.727,-5.7396,-5.7408,-5.7492,-5.7652,-5.7717,-5.7771,-5.791,-5.7914,-5.7939,-5.7995,-5.8071,-5.8085,-5.8098,-5.8149,-5.8166,-5.7951,-5.7951,-5.7951,0,-5.6781,-5.6922,-5.6963,-5.7063,-5.7123,-5.7139,-5.7242,-5.7302,-5.7422,-5.7463,-5.7441,-5.7643,-5.7706,-5.7856,-5.789,-5.7933,-5.7963,-5.7927,-5.808,-5.8093,-5.8106,-5.8155,-5.8173,-5.7953,-5.7953,-5.7953,-5.7953,0,-5.6957,-5.7055,-5.7125,-5.7242,-5.7309,-5.741,-5.7467,-5.7531,-5.7549,-5.7595,-5.7723,-5.7799,-5.7906,-5.7944,-5.7963,-5.8097,-5.8083,-5.807,-5.803,-5.8126,-5.8172,-5.8191,-5.7957,-5.7956,-5.7955,-5.7954,0,0,-5.7078,-5.7217,-5.7242,-5.7295,-5.7403,-5.748,-5.7582,-5.7687,-5.774,-5.7823,-5.791,-5.8046,-5.8035,-5.8096,-5.8123,-5.8189,-5.8296,-5.8168,-5.8171,-5.8189,-5.8449,-5.8458,-5.8479,-5.8299,-5.8303,-5.8306,-5.8442,0,-5.7204,-5.7385,-5.7426,-5.7583,-5.7674,-5.7691,-5.778,-5.7856,-5.7901,-5.7986,-5.8036,-5.8131,-5.8109,-5.8147,-5.8213,-5.8269,-5.8348,-5.8259,-5.8381,-5.8384,-5.8357,-5.8503,-5.8513,-5.8638,-5.846,-5.8463,-5.8465,0,-5.7374,-5.7461,-5.7627,-5.7724,-5.7763,-5.7843,-5.7943,-5.8023,-5.811,-5.8138,-5.8207,-5.8227,-5.8335,-5.829,-5.8438,-5.8377,-5.8429,-5.8464,-5.847,-5.8482,-5.843,-5.852,-5.8678,-5.8697,-5.8494,-5.8492,-5.849,0,-5.7446,-5.7605,-5.7725,-5.777,-5.7885,-5.7941,-5.7991,-5.8075,-5.8136,-5.8223,-5.8263,-5.8362,-5.8416,-5.8492,-5.8539,-5.8502,-5.8684,-5.8643,-5.8711,-5.871,-5.8748,-5.8745,-5.8917,-5.8781,-5.8781,-5.8781,-5.878,0,-5.7582,-5.7682,-5.7759,-5.7833,-5.7946,-5.7993,-5.8104,-5.8155,-5.8229,-5.8313,-5.8334,-5.8413,-5.8469,-5.8556,-5.8593,-5.8711,-5.8735,-5.8761,-5.877,-5.8759,-5.8756,-5.8794,-5.8786,-5.8786,-5.8785,-5.8784,-5.8783,0,-5.7681,-5.7736,-5.7868,-5.7967,-5.7994,-5.8074,-5.8158,-5.8231,-5.8277,-5.8383,-5.8411,-5.8483,-5.8587,-5.8641,-5.8769,-5.8794,-5.8927,-5.893,-5.8898,-5.8901,-5.8966,-5.8959,-5.9168,-5.9198,-5.9043,-5.9044,-5.9046,0,-5.7764,-5.7842,-5.7949,-5.8007,-5.8059,-5.8152,-5.8215,-5.8263,-5.8328,-5.8433,-5.8493,-5.8597,-5.8683,-5.8848,-5.8912,-5.9011,-5.9017,-5.9083,-5.9032,-5.9019,-5.9018,-5.9013,-5.9021,-5.9092,-5.9094,-5.9095,-5.9096,0,-5.7905,-5.7929,-5.8018,-5.8118,-5.8192,-5.8272,-5.8352,-5.8398,-5.846,-5.8531,-5.8637,-5.8704,-5.8836,-5.894,-5.9044,-5.9096,-5.9107,-5.9112,-5.9133,-5.9123,-5.9101,-5.9114,-5.8922,-5.9107,-5.9106,-5.9105,-5.9104,-5.9104,-5.7999,-5.807,-5.8157,-5.8256,-5.8321,-5.8395,-5.8468,-5.8524,-5.8613,-5.8725,-5.8748,-5.886,-5.8946,-5.9087,-5.9142,-5.9231,-5.9217,-5.9248,-5.9255,-5.9262,-5.9265,-5.9087,-5.925,-5.925,-5.925,-5.9249,-5.9249,0,-5.8142,-5.8199,-5.829,-5.8401,-5.8479,-5.8482,-5.8571,-5.8636,-5.8735,-5.8814,-5.8898,-5.9021,-5.9122,-5.9194,-5.9297,-5.9354,-5.9362,-5.9379,-5.9376,-5.9388,-5.9271,-5.9243,-5.9372,-5.9372,-5.9372,-5.9372,-5.9372,-5.9372,-5.8226,-5.8345,-5.838,-5.8532,-5.8589,-5.8699,-5.8749,-5.8818,-5.8881,-5.9017,-5.9101,-5.9148,-5.9225,-5.9334,-5.9426,-5.9445,-5.9482,-5.95,-5.9519,-5.9409,-5.9396,-5.9383,-5.9357,-5.9507,-5.9508,-5.9628,-5.9629,-5.963]}]]